Find Starlink 3872

NORAD ID: 52453 Int'l Des: 2022-049 Owner: SPXS Country: US Constellation: starlink operational
LEOCIRCULAR

当前视图

正在加载3D地球...

About Starlink 3872

Starlink 3872 (NORAD 52453) is a starlink constellation satellite (v1.5) launched May 6, 2022 by SPXS of US. It operates in LEO, CIRCULAR orbit with a mass of 297.00 kg.

即将过境

Passes for default location (London). Set your location on the main map for personalized predictions.

高度历史

Loading altitude history...

两行轨道根数

1 52453U 22049C 26262.65512878 .00000838 00000-0 34933-4 0 9991
2 52453 53.1610 273.5141 0001221 87.9649 272.1494 15.35405167241451
Epoch: Sep 19, 2026 • Age: 26 hours

当前状态

高度 478.0 km
远地点 / 近地点 N/A
速度 7.63 km/s
星下点 -50.50°S, 113.88°W
发射日期 May 6, 2022
运行时间 4.3 years
类型 internet

技术详情

分类 Payload
质量 297.00 kg
干质量 220.00 kg
长度 0.20 m
跨度 9.00 m
形状 ? Box + pan
制造商 SPXS
平台类型 Starlink
阶段状态 In Orbit
所有者/国家 SPXS/US

Most Searched